Flag for Germany Weather past 2 weeks in Heide, Schleswig-Holstein, Germany

Now
57 °F

Cool.


Feels Like: 57 °F
Forecast: 56 / 65 °F
Wind: 3 mph from South

Location: Hohn

Current Time: Aug 30, 2014 at 2:14:41 AM

Latest Report: Aug 30, 2014 at 1:20 AM


Visibility: 3 mi

Pressure: 29.95 "Hg

Humidity: 94%

Dew point: 55 °F

Location of HeideLocation

Historic Weather in Heide — Graph

°F

Heide temperature yesterday

Maximum temperature yesterday: 68 °F (at 1:20 PM)
Minimum temperature yesterday: 55 °F (at 10:20 PM)
Average temperature yesterday: 62 °F

Past Weeks' High & Low Weather Summary

 TemperatureHumidityPressure
High72 °F (Aug 28, 3:20 PM)100% (Aug 26, 5:20 AM)30.04 "Hg (Aug 26, 5:20 AM)
Low37 °F (Aug 26, 5:20 AM)41% (Aug 28, 4:20 PM)29.42 "Hg (Aug 18, 9:20 AM)
Average56 °F80%29.82 "Hg
* Reported Aug 15 12:20 AM — Aug 30 12:20 AM, Heide, Weather by CustomWeather, © 2014

Note: Actual official high and low records may vary slightly from our data, if they occured in-between our weather recording intervals... More about our weather records

Advertising

Heide weather history for previous 24 hours

 ConditionsComfort  
Time TempWeatherWind HumidityBarometerVisibility
12:20 AM
Aug 30
59 °FCool.5 mph88%29.95 "Hg4 mi
11:20 PM
Aug 29
59 °FCool.3 mph88%29.95 "Hg4 mi
10:20 PM55 °FCool.5 mph94%29.92 "Hg4 mi
8:20 PM63 °FMild.3 mph77%29.92 "Hg5 mi
7:20 PM64 °FMild.8 mph73%29.92 "Hg6 mi
6:20 PM66 °FMild.13 mph68%29.92 "Hg5 mi
5:20 PM68 °FMild.17 mph64%29.92 "Hg5 mi
4:20 PM68 °FMild.16 mph69%29.92 "Hg4 mi
2:20 PM68 °FMild.15 mph69%29.89 "Hg4 mi
1:20 PM68 °FBroken clouds.13 mph73%29.89 "HgN/A
12:20 PM66 °FBroken clouds.10 mph78%29.89 "HgN/A
11:20 AM64 °FBroken clouds.9 mph83%29.89 "Hg4 mi
10:20 AM63 °FLight rain. Partly sunny.6 mph88%29.89 "Hg4 mi
9:20 AM63 °FPartly sunny.5 mph83%29.89 "Hg5 mi
8:20 AM61 °FPartly sunny.2 mph83%29.89 "HgN/A
7:20 AM57 °FPassing clouds.2 mph82%29.89 "HgN/A
6:20 AM57 °FPassing clouds.3 mph82%29.89 "HgN/A
5:20 AM57 °FPartly cloudy.5 mph82%29.89 "HgN/A
4:20 AM59 °FPassing clouds.3 mph77%29.89 "HgN/A
3:20 AM59 °FLight rain. Passing clouds.5 mph77%29.92 "HgN/A
2:20 AM59 °FPassing clouds.3 mph77%29.92 "HgN/A
Weather by CustomWeather, © 2014

See weather overviewHow to use our weather pages